Wind_Speed
2 1 1 2 1 1 1 2 2 2 1 2 2 3 3 3 3 3 3 3 3 4 4 5 5 5 6 7 7 7 7 8 4 2 1 1 2 1 0 1 3 3 4 5 6 5 5 7 10 13 7 2 3 2 3 2 3 5 4 4 2 2 2 3 6 6 4 5 6 5 3 7 4 1 2 4 8 5 4 5 4 5 6 5 7 9 8 10
2 1 2 2 1 1 1 1 1 2 2 2 2 3 3 3 3 3 3 3 3 4 4 5 5 5 6 7 7 8 9 7 2 1 3 1 2 3 3 3 3 4 5 4 6 7 5 5 10 11 7 2 3 2 2 2 3 4 3 4 2 5 2 3 6 5 3 6 6 4 4 6 6 4 3 2 1 2 5 4 4 5 4 5 7 10 10 12
2 2 2 2 2 2 1 1 1 1 2 3 3 2 3 3 3 3 3 3 3 4 4 4 5 6 6 7 7 9 9 5 1 2 1 2 4 5 5 5 4 5 5 4 6 7 4 4 7 5 4 2 2 3 3 4 3 2 4 4 3 6 3 1 3 3 3 6 8 3 3 4 4 3 2 4 4 2 3 3 2 1 4 4 5 9 12 14
3 3 2 1 1 1 0 1 1 1 1 2 3 2 3 3 3 3 3 3 3 4 4 4 5 6 7 7 7 8 8 4 1 2 3 5 6 7 7 6 6 5 5 6 6 7 6 5 4 3 4 2 3 4 3 2 1 2 4 4 5 4 3 1 2 2 2 5 7 4 4 4 3 2 3 7 6 3 6 7 7 8 10 9 6 8 12 14
3 3 2 1 1 1 1 2 2 2 2 2 3 3 3 2 2 2 2 2 3 3 3 4 5 6 7 8 7 8 6 5 1 3 4 5 7 8 7 6 5 5 6 7 6 6 6 4 5 5 4 2 4 5 2 3 2 3 2 3 5 4 3 3 3 1 3 5 5 5 5 4 2 1 5 9 6 5 6 8 8 9 11 11 9 10 11 12
3 3 2 1 1 1 0 0 1 1 2 2 3 3 3 3 2 2 2 2 2 3 3 4 5 5 6 7 7 5 3 2 3 4 6 6 8 7 7 5 4 5 6 6 6 7 7 5 6 4 3 3 2 3 0 4 3 3 2 1 2 3 4 3 2 1 4 6 5 5 3 2 2 1 4 8 6 5 4 4 7 8 12 13 12 11 9 9
3 2 2 2 0 2 2 2 1 1 0 1 2 3 3 3 2 2 2 2 2 2 3 4 5 5 6 6 5 4 3 2 4 7 8 7 8 7 6 3 2 4 4 5 8 6 5 7 5 3 4 4 1 2 1 4 5 5 1 2 1 2 4 4 4 3 5 7 5 3 3 2 5 3 1 4 4 2 1 4 10 12 15 15 11 9 9 9
4 3 3 2 1 1 2 3 3 3 2 1 1 2 3 3 2 1 1 2 2 2 3 3 4 5 5 4 2 4 2 3 6 10 8 8 8 6 5 2 1 3 3 6 7 3 3 6 3 2 4 2 2 2 1 4 6 4 2 2 1 1 2 3 4 4 5 5 3 4 3 5 6 4 1 4 4 2 3 7 10 12 12 11 8 8 9 9
5 5 4 3 3 2 2 3 3 3 3 3 2 2 2 2 2 1 1 2 2 2 3 3 4 4 4 2 4 1 3 4 9 11 8 8 8 6 5 2 1 2 2 5 6 4 2 2 1 2 4 2 2 2 1 3 1 1 3 1 1 2 2 1 2 4 5 3 4 4 3 6 3 1 3 4 7 5 5 7 7 9 8 7 7 8 10 10
7 7 6 5 4 3 3 2 3 4 3 3 4 3 3 3 2 1 1 2 1 2 2 2 3 3 2 2 5 1 3 3 9 11 9 8 7 6 5 2 2 2 1 4 5 6 3 3 2 2 5 2 2 1 1 3 2 3 4 2 1 2 3 2 4 5 3 1 5 5 4 4 4 1 3 3 6 6 7 6 5 7 7 7 6 7 10 11
8 8 8 7 7 6 5 4 4 4 4 4 4 4 4 3 2 2 1 1 1 1 2 2 2 2 1 3 5 3 3 4 9 11 10 9 7 5 4 4 3 3 1 4 5 5 3 1 1 2 2 1 1 2 1 2 3 2 3 2 4 4 5 3 5 5 2 1 5 6 3 4 4 1 5 5 7 6 8 7 5 7 6 6 6 6 8 10
9 9 8 8 9 10 9 7 5 5 6 5 5 5 5 4 3 2 1 1 1 1 1 2 1 1 1 3 3 5 4 5 9 10 10 8 7 6 4 3 3 2 1 3 5 4 4 2 3 4 0 2 2 2 0 2 2 2 3 2 6 7 5 5 4 4 5 2 5 6 2 5 3 5 5 3 8 6 7 7 6 6 5 5 6 5 6 9
9 9 8 8 9 10 10 10 8 6 6 6 6 5 5 5 3 2 3 2 2 1 1 1 1 1 2 0 3 5 6 6 8 10 10 8 6 6 5 4 3 2 1 3 3 3 4 3 5 5 2 4 1 1 2 2 2 1 3 2 4 7 5 6 1 4 6 3 4 5 2 6 7 8 4 3 9 8 7 7 6 6 5 5 6 5 5 8
10 10 9 9 9 10 10 10 10 9 7 7 7 5 5 4 3 3 4 3 3 2 1 1 0 1 3 2 4 4 7 8 9 10 10 9 7 6 5 4 3 2 1 3 3 3 4 3 5 5 2 3 1 0 3 5 3 0 1 2 2 2 4 7 2 6 6 2 3 5 2 7 9 9 5 6 8 10 9 8 7 6 6 6 5 6 5 7
10 10 10 10 10 11 11 10 10 10 8 6 6 5 3 2 3 3 4 4 3 2 1 2 2 3 2 3 4 3 7 8 9 11 10 10 8 6 6 5 4 3 2 2 3 3 3 3 4 4 0 2 3 3 3 4 3 2 1 3 3 1 5 8 2 7 7 1 2 5 2 7 9 8 5 7 7 9 9 8 8 8 8 7 6 6 5 6
11 10 10 10 10 11 11 11 10 10 7 5 5 4 1 2 3 4 4 3 4 4 3 3 3 4 2 2 1 2 7 7 9 12 11 11 9 6 7 7 4 4 4 3 4 3 4 5 3 2 1 2 4 4 3 4 4 3 1 3 2 2 3 6 3 3 4 2 0 2 3 4 5 5 3 7 7 7 7 8 9 9 9 8 6 6 6 6
13 11 10 9 10 10 10 10 10 8 6 4 3 1 2 2 3 4 5 5 6 5 5 4 3 3 0 1 1 3 6 8 10 13 12 10 8 8 9 6 3 5 5 5 5 3 5 5 1 1 2 3 3 4 4 2 4 4 1 2 4 3 2 3 4 3 2 3 3 3 4 7 7 4 3 6 7 7 8 9 10 9 8 7 7 6 6 7
14 13 11 10 9 9 9 10 9 7 5 4 1 2 4 4 3 4 6 8 8 7 5 3 3 2 3 3 3 3 5 9 12 13 12 9 10 9 7 4 4 6 5 5 4 3 3 4 2 1 3 2 2 5 3 4 4 3 3 2 3 3 2 4 4 2 4 3 4 4 5 11 12 8 6 7 7 8 11 10 8 8 8 7 7 7 7 8
14 13 12 11 9 9 9 9 9 7 4 3 2 5 6 4 3 4 5 6 5 4 2 3 3 3 4 4 3 3 6 10 11 12 12 11 11 8 5 5 6 6 4 2 2 1 2 3 4 2 1 3 4 6 7 8 6 6 5 4 3 3 3 5 5 5 7 4 4 7 7 11 13 11 8 7 7 9 11 8 6 7 8 8 8 8 9 9
16 14 13 12 11 10 9 9 8 6 4 2 3 5 4 2 2 0 1 3 4 4 3 5 6 4 0 1 4 8 9 8 5 8 12 12 12 8 4 4 6 5 3 4 2 0 4 3 2 5 7 8 8 9 8 5 5 4 3 3 4 4 5 5 4 6 4 4 6 9 9 11 11 12 10 6 6 8 11 10 9 9 8 9 10 10 11 9
17 16 14 12 11 10 9 8 7 5 4 4 4 3 2 3 3 2 3 4 10 9 4 5 5 2 1 2 9 11 7 3 1 5 13 12 11 9 2 2 5 2 2 4 3 1 4 4 7 10 10 8 7 8 6 3 2 1 2 2 4 4 6 6 4 4 1 3 6 5 7 11 12 12 10 4 7 10 13 13 13 12 11 10 11 12 10 6
18 17 16 14 11 9 9 8 7 5 6 6 4 2 2 1 2 1 1 2 10 13 11 6 2 4 4 3 11 9 3 2 0 4 12 10 8 7 2 3 5 3 2 3 4 2 2 4 12 11 6 4 3 5 5 5 5 3 2 2 4 3 4 6 4 3 0 3 5 4 4 10 12 11 10 7 9 11 12 14 15 14 13 11 12 12 10 8
20 18 16 15 12 10 9 8 6 5 8 7 6 4 1 1 3 3 1 0 5 7 7 7 6 7 5 2 9 10 1 4 5 5 12 10 5 5 5 5 5 4 4 5 5 4 3 6 12 9 7 6 4 3 6 3 4 4 3 2 4 4 2 4 5 3 1 2 3 4 5 8 9 8 10 11 10 8 9 12 13 12 12 13 14 13 12 13
21 19 17 15 13 11 9 7 6 8 10 10 11 10 6 5 3 4 1 0 4 4 5 9 8 7 8 7 11 13 4 4 5 6 14 12 5 3 5 6 5 5 5 9 9 6 6 7 4 6 8 8 6 4 6 4 3 5 6 6 5 5 6 6 4 3 3 4 2 3 6 8 7 9 11 8 4 7 9 9 11 11 11 11 10 11 12 13
22 21 18 16 14 12 9 7 9 12 10 9 14 14 11 8 3 5 3 1 4 5 3 6 5 6 12 11 13 11 2 4 4 8 17 15 9 4 3 3 4 5 7 8 7 5 8 6 3 7 6 7 7 6 6 7 5 5 5 10 10 8 8 5 2 4 4 5 3 2 4 7 5 7 10 5 3 7 7 7 12 13 10 10 10 11 10 10
24 22 20 18 15 14 10 6 11 14 10 10 14 14 12 8 4 3 3 3 4 4 1 4 4 8 13 10 10 7 1 5 4 10 19 17 10 5 3 2 2 4 7 5 4 3 5 6 4 6 6 7 7 5 6 7 5 4 6 9 9 7 5 4 1 2 1 4 4 1 2 7 6 4 8 5 5 10 8 8 12 11 9 10 11 10 10 10
28 24 22 21 19 19 13 5 10 14 8 10 13 16 14 9 5 2 2 4 5 3 4 3 2 7 10 10 13 9 3 5 3 7 13 12 8 2 3 5 2 3 4 4 2 3 4 6 5 6 6 6 6 5 6 8 7 4 5 6 7 7 5 5 5 4 3 3 4 2 2 5 8 6 6 6 8 12 11 11 13 11 10 11 10 9 10 12
32 29 26 24 24 26 18 7 12 17 8 3 10 20 17 11 7 2 4 0 4 3 4 2 1 4 4 8 14 8 2 3 5 4 3 5 6 1 2 8 6 6 5 5 5 4 4 7 8 8 6 5 6 5 7 10 6 6 4 7 6 6 5 3 5 3 1 2 4 5 1 3 8 5 2 1 6 11 12 14 14 13 11 10 10 10 11 12
35 32 30 28 26 28 22 11 13 19 13 4 10 22 19 13 7 4 4 3 2 1 2 1 2 1 3 6 9 4 2 2 2 3 1 3 3 2 3 6 5 8 6 4 6 3 1 5 7 8 6 7 5 3 7 10 6 4 5 7 6 5 5 5 5 3 2 1 6 7 3 4 7 4 2 1 3 9 11 12 12 10 9 9 10 10 10 10
34 34 34 31 28 31 26 18 17 19 16 7 10 20 19 9 5 4 2 4 1 1 1 2 2 2 7 9 4 0 3 2 0 2 2 1 1 4 1 2 5 5 2 3 2 2 2 1 2 3 4 5 4 3 3 6 6 6 6 7 7 6 5 4 3 4 1 4 7 9 9 7 6 3 4 3 4 7 7 8 9 7 6 8 9 9 10 9
32 34 35 33 32 34 25 19 26 22 16 13 12 17 13 3 2 5 6 2 1 2 2 1 2 5 12 14 7 3 3 1 1 5 4 1 2 3 1 1 4 3 1 4 3 4 5 2 1 2 2 4 6 4 2 2 4 6 5 5 4 4 4 4 4 3 1 6 6 7 8 8 7 6 4 5 6 5 6 7 8 8 7 8 8 8 9 9
27 32 36 36 35 36 27 20 29 25 14 15 14 11 7 2 2 6 5 1 1 4 5 4 4 7 11 11 8 7 5 2 3 6 6 4 4 5 5 6 5 3 3 6 3 3 3 3 3 3 1 4 6 4 3 5 3 5 5 6 3 2 3 2 3 0 4 7 4 2 1 4 9 9 7 9 11 10 9 8 8 8 8 7 8 8 8 7
23 29 37 40 37 39 34 24 26 25 17 19 14 3 2 5 6 9 8 5 3 3 4 4 4 8 11 9 5 5 4 2 5 4 3 5 5 7 6 5 5 3 3 5 3 1 3 5 2 0 3 3 8 7 3 1 3 5 6 6 5 3 0 3 4 2 4 5 4 2 1 3 6 6 11 15 16 13 10 9 8 8 8 8 8 8 8 8
18 24 34 40 40 41 37 27 25 27 25 21 11 3 4 6 6 11 14 11 4 2 2 4 6 7 8 5 4 7 4 3 6 5 2 5 5 6 5 6 6 2 3 4 3 5 5 6 4 7 3 5 10 9 6 6 5 5 5 6 6 6 4 4 4 3 4 3 4 2 2 4 3 4 8 11 10 9 8 8 7 7 7 5 4 7 8 9
16 22 31 37 39 39 36 31 29 31 26 16 7 7 10 7 6 10 13 10 4 3 3 3 8 7 5 2 3 7 5 3 6 5 4 6 6 7 7 8 11 6 4 4 2 3 5 6 5 4 1 8 10 5 5 7 2 2 2 5 4 5 5 3 3 5 3 2 3 2 3 5 5 5 7 6 7 7 7 8 7 7 4 2 4 7 8 9
16 21 28 33 37 38 37 33 33 35 24 11 6 8 10 9 8 7 7 7 6 5 6 4 5 5 6 2 2 6 3 2 5 5 3 4 4 7 8 7 11 12 9 7 3 3 3 5 4 2 2 4 6 3 4 4 3 2 3 4 4 4 5 2 3 1 2 3 4 3 5 5 3 7 9 7 9 8 7 9 8 7 3 3 6 7 8 9
15 18 23 31 35 38 39 35 37 36 19 9 9 9 9 10 9 6 3 3 4 7 9 5 3 6 7 5 5 8 4 2 5 5 4 3 3 6 8 4 6 14 14 6 2 3 5 2 4 2 2 3 1 3 3 2 4 5 3 6 2 2 2 2 2 3 3 4 4 3 7 6 2 6 4 1 7 10 10 11 8 6 4 7 8 7 8 9
14 11 15 28 37 38 40 41 40 29 10 7 11 9 8 10 10 8 4 2 5 6 7 9 8 8 9 8 7 9 8 5 6 6 4 4 5 7 11 5 5 15 16 7 1 3 4 2 4 1 3 2 3 3 2 5 2 5 4 4 4 2 2 2 2 2 1 4 5 3 6 5 5 5 2 3 9 11 13 12 8 8 9 10 8 7 8 7
11 5 7 23 36 40 43 45 35 16 4 8 11 9 9 10 9 8 5 4 6 6 8 11 8 5 7 8 6 7 9 8 9 7 5 5 5 6 13 10 6 11 14 10 5 2 3 3 3 1 0 1 2 2 4 1 2 3 1 2 2 2 3 3 3 3 3 3 4 3 3 4 6 7 7 9 11 12 13 11 9 12 13 10 8 8 8 9
6 3 3 12 28 40 45 38 20 6 4 9 11 10 10 8 8 9 8 6 4 4 8 11 8 5 6 8 8 8 8 8 10 8 5 7 6 5 9 11 5 7 11 12 8 2 2 3 3 2 2 1 2 4 8 10 7 4 4 4 3 1 2 1 1 2 4 3 3 4 6 5 4 5 9 11 11 12 11 10 10 12 12 10 9 8 9 10
4 5 3 9 27 40 36 19 7 6 8 9 11 12 9 5 5 9 11 7 3 2 4 7 8 9 7 8 8 7 7 6 8 8 5 7 7 5 7 10 9 8 8 8 8 5 4 3 3 2 1 4 5 4 6 9 8 7 7 9 9 6 4 2 3 2 2 3 4 3 8 8 4 4 7 8 9 10 10 10 11 11 11 10 8 9 10 10
4 6 4 13 34 40 23 7 6 8 9 10 9 7 5 3 3 7 10 9 5 3 2 3 6 10 8 8 8 7 8 6 8 8 5 9 11 7 7 10 12 13 11 9 11 9 4 3 3 3 4 5 6 5 3 4 3 3 3 5 7 6 6 5 5 4 2 2 2 2 6 9 3 4 5 6 6 6 6 7 9 10 10 8 7 8 9 9
4 6 3 18 40 36 12 6 9 7 7 7 4 1 5 4 4 5 9 11 9 5 5 3 4 7 8 6 7 8 8 7 10 11 8 8 10 8 8 11 13 14 11 7 8 5 3 3 3 1 2 3 4 4 3 2 1 1 2 2 6 8 7 5 4 3 3 4 3 2 6 8 2 1 3 4 5 5 5 5 7 9 8 5 6 7 7 7
3 4 2 19 42 32 8 6 9 7 7 7 6 5 5 5 7 8 9 12 11 7 7 6 4 6 7 5 6 10 11 8 9 13 10 6 7 7 9 13 14 12 9 6 7 5 3 4 3 2 1 2 3 3 2 1 2 3 3 5 7 10 7 3 1 2 2 8 8 4 10 9 2 4 3 3 4 5 7 6 5 7 9 6 5 5 6 7
3 3 1 13 30 23 7 6 8 7 9 10 10 11 9 6 7 11 9 9 10 9 7 7 5 4 4 3 4 8 12 11 8 9 9 5 4 3 7 13 14 12 9 8 11 10 6 5 6 6 8 8 7 7 6 3 3 2 4 7 10 11 11 7 2 4 7 7 8 7 13 10 2 4 5 5 4 4 8 7 4 6 9 7 5 6 7 8
4 4 2 6 13 12 8 7 8 8 10 12 9 10 14 10 7 10 10 8 10 10 9 7 5 5 4 4 5 5 11 12 6 5 7 8 3 1 4 10 11 8 4 4 8 7 4 4 10 13 13 14 13 9 5 8 8 8 10 12 13 14 14 10 5 7 7 1 4 13 16 14 10 6 5 6 3 5 7 6 6 7 8 6 6 6 6 7
4 4 4 4 5 8 10 9 9 8 10 12 7 6 14 16 9 7 10 10 10 11 10 7 5 7 7 7 7 7 8 8 5 4 6 7 4 2 1 5 6 3 3 2 4 4 4 5 13 18 19 20 18 10 9 13 14 16 16 14 15 15 14 12 13 13 7 4 10 17 10 12 19 14 11 11 6 5 8 8 8 8 6 5 5 5 6 7
3 3 4 5 4 6 9 11 12 11 11 11 7 6 12 17 15 10 9 11 12 10 8 6 8 12 14 12 10 7 7 6 6 6 5 4 4 2 1 2 3 3 6 3 1 4 4 6 11 15 18 21 19 9 10 12 11 12 15 15 16 17 17 18 21 18 10 7 17 18 8 12 21 17 13 11 8 10 13 9 6 4 4 5 6 6 8 8
3 3 3 4 4 5 7 9 13 15 14 11 7 7 10 14 18 14 8 8 10 11 10 10 14 17 17 14 10 8 9 8 9 9 7 5 5 5 3 2 1 2 5 4 2 3 2 3 3 7 12 17 17 9 9 9 5 5 10 13 15 18 21 22 21 19 15 14 21 21 14 18 19 12 11 10 10 12 10 3 4 6 7 7 7 8 9 9
3 2 2 3 4 5 5 5 9 11 13 11 9 9 10 13 17 15 10 8 10 12 13 17 20 18 17 16 13 12 13 12 14 13 9 8 7 5 5 4 2 2 3 3 2 1 2 2 2 3 4 12 15 9 6 8 6 6 8 11 16 19 18 17 15 15 14 16 21 21 20 20 12 5 9 9 6 6 6 6 9 9 9 8 8 9 10 10
8 4 1 1 3 5 5 4 6 7 8 9 8 7 9 15 18 15 12 12 13 12 14 20 23 17 14 15 15 17 18 16 17 11 8 8 7 5 5 5 6 5 3 4 3 3 4 2 2 3 3 8 11 9 6 6 5 8 12 17 21 16 11 11 13 14 15 16 19 17 16 18 11 5 6 6 5 8 11 12 10 9 8 9 10 11 11 11
10 6 2 1 2 4 4 3 6 8 6 7 9 9 10 13 15 13 10 9 12 12 12 18 22 13 10 16 20 22 21 16 11 5 5 4 3 4 4 4 7 8 6 5 3 3 6 4 1 3 4 7 5 4 4 5 3 7 14 21 21 15 11 12 13 15 17 15 14 13 14 19 14 6 7 7 8 11 13 11 10 9 9 10 11 12 12 12
Wind_Direction
158 151 121 117 125 154 155 161 165 166 170 192 194 186 189 186 191 204 216 229 246 265 274 281 293 303 314 326 333 340 348 348 342 12 28 266 271 259 159 78 103 57 19 7 5 14 25 24 5 4 19 32 15 354 350 10 59 55 80 84 88 163 178 180 184 198 178 164 191 218 174 131 151 204 134 41 41 79 67 38 9 11 35 73 111 117 123 149
156 129 96 89 79 85 109 142 165 174 175 187 191 189 186 181 191 206 222 237 248 260 270 279 294 304 316 329 333 341 346 343 343 19 -0 291 221 171 141 109 99 41 18 15 19 22 26 355 339 358 28 30 346 0 11 0 60 83 107 87 169 200 201 203 188 204 193 159 166 188 171 148 163 166 131 103 354 122 89 31 6 32 45 81 108 118 128 141
148 134 114 82 59 63 65 93 133 190 188 181 184 180 181 187 194 207 224 238 247 255 266 278 296 308 318 325 334 344 342 351 37 346 16 117 133 134 121 104 77 39 28 20 9 9 6 321 328 1 35 36 345 12 38 17 47 119 106 84 228 210 193 256 189 191 200 151 140 154 171 150 174 168 135 154 171 189 157 172 164 180 187 154 131 123 128 131
158 160 150 118 108 83 112 177 154 177 190 175 173 177 183 188 192 210 228 235 248 253 265 282 301 310 316 323 338 342 347 39 54 285 130 125 125 123 112 98 65 37 19 9 2 359 350 335 1 45 55 30 331 21 50 3 48 93 97 145 211 174 131 266 233 154 112 128 138 135 118 136 199 176 136 138 134 254 240 207 191 190 183 172 164 137 131 130
178 181 174 190 184 152 205 190 186 187 182 170 169 177 183 189 191 207 223 236 250 257 276 292 304 312 318 326 337 338 6 67 230 223 144 138 130 125 111 93 57 29 12 8 8 19 19 21 48 51 56 40 342 28 27 298 75 71 19 185 189 138 130 241 245 184 111 104 103 113 131 156 189 130 147 148 158 226 236 216 198 178 168 163 159 147 136 133
199 195 194 229 231 0 324 160 243 217 178 167 172 175 180 194 193 200 222 242 259 271 290 299 307 314 323 329 334 346 56 105 236 189 163 153 139 134 116 95 55 19 3 15 23 34 34 30 49 52 49 52 21 58 338 309 55 100 323 305 214 163 150 199 223 217 119 107 119 154 170 136 109 240 182 168 195 236 252 199 165 151 152 149 144 143 138 139
223 223 238 244 275 5 348 349 310 292 195 183 187 181 184 195 200 214 230 251 268 286 301 304 310 314 331 335 339 24 86 248 230 177 175 161 151 146 128 112 60 15 351 20 27 39 51 41 57 102 74 62 109 102 32 343 36 92 153 298 316 138 147 173 175 152 120 131 181 163 117 148 165 187 199 189 220 251 344 102 122 132 138 139 137 141 147 150
237 240 256 263 275 336 340 332 322 327 328 281 228 199 199 205 215 236 251 267 275 293 298 303 312 319 337 344 9 26 0 250 191 175 177 166 166 163 154 155 42 4 8 25 23 47 74 53 71 130 83 80 140 118 42 23 27 71 151 250 354 21 208 193 158 148 145 149 157 112 139 223 198 163 233 218 199 167 136 101 110 124 129 137 142 146 152 154
249 253 260 263 257 259 290 312 315 317 321 309 282 252 238 233 240 266 269 278 282 284 294 306 312 321 335 19 85 39 278 210 175 175 175 173 175 174 181 186 318 313 34 27 26 57 76 96 186 155 129 172 113 100 56 61 352 188 153 211 0 317 286 192 182 190 185 176 142 140 229 263 256 207 272 217 175 167 134 108 115 126 131 146 149 157 158 159
285 293 291 280 271 265 262 281 294 295 301 298 287 276 267 260 258 284 281 277 271 273 298 305 309 328 327 55 90 164 258 180 175 177 174 182 183 184 202 234 274 256 69 35 37 52 78 164 212 137 125 127 91 92 16 94 174 180 141 185 196 300 302 178 211 232 208 229 180 181 238 279 313 260 251 227 172 162 130 127 144 138 150 162 156 166 163 165
300 310 308 297 293 291 282 277 287 289 283 281 280 270 268 266 255 275 284 258 238 258 295 301 315 320 301 79 111 197 239 169 178 178 182 192 193 205 224 246 243 217 158 63 60 54 72 154 184 116 98 71 81 24 346 129 139 142 128 273 301 334 312 221 222 238 180 239 184 161 229 296 351 240 232 211 167 161 145 153 169 156 167 167 163 171 165 169
291 303 307 301 299 302 299 290 287 292 288 286 280 267 263 260 245 237 208 194 218 238 280 295 324 322 33 67 146 217 223 187 187 184 192 199 198 211 217 225 213 191 206 92 79 58 57 24 68 94 140 142 113 21 155 159 115 123 85 335 308 357 336 255 237 207 163 192 181 136 332 298 240 224 250 190 157 150 151 165 181 178 180 170 169 171 171 171
284 294 301 301 301 302 302 296 289 289 291 297 294 280 262 250 233 208 181 177 191 193 257 272 323 49 80 82 233 226 218 202 195 189 190 193 195 204 197 192 189 175 162 97 85 60 56 26 71 102 126 110 134 245 121 63 79 131 61 68 308 3 334 279 316 153 155 177 175 135 298 274 245 244 260 169 155 142 159 185 191 190 189 183 179 173 184 180
281 285 290 295 299 298 301 297 286 283 289 302 305 298 273 245 217 201 171 164 174 173 223 170 155 84 91 242 256 242 224 207 197 189 180 184 185 185 183 177 177 169 131 95 81 48 47 42 72 87 91 95 162 163 41 10 30 68 23 36 353 9 283 293 341 147 155 200 150 120 236 265 270 268 232 181 167 158 177 198 193 196 197 191 191 182 192 195
278 281 283 288 293 294 297 295 285 281 288 305 312 310 290 223 198 184 158 163 164 150 155 151 155 103 71 279 276 235 214 203 194 186 178 181 175 169 168 160 157 135 117 97 89 66 50 67 77 77 335 6 60 71 23 352 8 41 34 318 339 163 266 306 296 162 158 221 98 120 221 270 278 275 209 175 176 174 187 203 198 201 200 193 198 190 192 207
272 276 279 281 287 293 295 295 288 279 288 307 311 307 274 185 175 157 147 145 137 131 111 110 133 110 91 275 289 216 208 201 193 183 179 181 180 173 152 143 134 115 112 90 98 101 58 55 64 89 161 41 68 84 45 10 343 355 110 246 264 182 273 320 312 206 161 128 123 185 235 271 284 295 217 177 183 187 198 213 208 206 203 197 197 193 190 198
267 269 275 278 282 289 296 297 290 284 292 301 298 259 161 149 156 147 139 126 118 110 96 101 118 108 108 240 210 240 205 190 189 181 179 183 186 175 149 131 110 106 99 80 86 83 39 38 34 317 53 64 89 94 60 343 292 318 355 230 245 204 223 300 300 290 128 140 212 228 244 254 266 293 239 206 191 191 212 220 214 210 206 203 197 196 197 191
262 264 266 271 276 283 293 296 289 284 288 289 263 148 126 116 124 126 134 134 111 84 78 89 94 108 261 227 195 215 175 177 182 176 177 176 172 167 147 128 118 106 77 50 47 44 24 19 48 44 18 28 87 102 129 225 212 199 199 207 256 243 219 251 275 236 154 171 215 204 243 258 266 270 231 220 200 199 222 225 218 215 208 208 203 201 203 198
257 259 259 262 269 273 281 292 291 278 275 281 182 134 112 90 94 114 135 142 128 109 165 207 152 153 234 228 181 121 131 156 166 172 173 164 163 156 123 111 103 96 89 63 358 12 81 41 56 105 228 225 189 164 186 205 177 170 179 160 185 232 252 236 256 242 179 169 225 209 225 248 257 261 240 220 204 211 233 237 229 221 212 210 208 207 205 206
254 253 252 256 259 264 268 283 295 280 260 238 156 132 117 88 65 317 203 186 207 178 147 201 192 166 263 271 136 120 124 134 149 179 175 166 163 145 97 79 60 55 107 148 186 301 101 108 188 202 210 208 198 197 202 184 143 141 142 150 197 215 268 258 261 271 181 158 243 223 228 248 252 259 255 215 191 221 238 240 235 223 216 212 209 211 207 206
253 249 249 249 249 257 259 268 288 279 239 198 156 136 168 163 138 234 230 246 254 241 228 224 208 229 299 171 157 143 127 104 3 189 177 174 161 149 131 73 83 57 216 157 137 49 91 151 222 223 210 202 198 201 210 199 160 173 174 241 263 219 252 259 243 284 188 170 262 246 238 257 254 258 263 199 177 222 227 226 232 224 219 215 210 213 206 190
250 247 247 243 240 247 248 259 275 254 213 194 182 217 250 197 91 0 175 257 266 243 233 239 258 282 270 188 175 163 90 95 243 214 184 174 165 170 162 103 134 176 189 122 99 66 101 216 239 229 190 163 188 186 188 221 232 246 226 250 272 242 268 280 270 306 50 177 263 279 256 260 258 258 261 227 205 228 223 218 227 223 218 215 209 210 196 176
248 244 244 240 234 236 240 254 260 228 207 200 203 207 209 66 56 29 134 147 288 246 219 217 221 231 229 218 188 180 159 165 178 220 190 168 170 187 148 140 165 149 140 157 155 153 171 244 245 216 151 149 209 188 157 194 246 237 220 221 253 247 247 277 289 314 294 223 263 287 287 268 263 263 258 239 223 237 235 225 232 226 220 218 209 205 193 185
247 241 239 236 229 227 235 243 231 219 215 217 221 201 147 124 93 42 67 248 289 264 218 206 207 202 202 209 186 179 209 197 167 196 188 168 148 164 162 165 151 133 176 192 178 181 210 240 236 154 153 172 198 205 169 174 246 245 217 208 228 234 217 230 280 325 335 335 334 324 306 276 252 246 251 254 244 252 245 230 238 235 227 223 213 209 200 191
242 239 234 229 226 221 219 222 216 214 210 223 228 200 152 140 107 45 48 9 282 284 269 209 201 203 196 182 171 170 192 236 206 185 181 174 155 145 182 169 134 176 200 187 180 216 236 234 106 111 150 173 183 212 195 179 216 264 228 209 215 216 216 230 344 21 2 329 329 13 303 279 263 241 251 281 314 262 245 224 237 237 227 220 213 208 197 190
234 235 229 221 216 205 200 218 218 207 203 226 220 186 159 147 112 66 75 40 283 268 213 186 182 189 184 162 155 140 106 246 232 165 172 180 176 136 154 167 96 200 189 160 180 232 233 222 164 136 147 162 181 223 220 179 177 259 240 203 201 192 195 223 167 75 261 262 295 67 195 268 284 243 242 256 260 260 252 239 245 242 228 219 215 206 189 185
230 230 224 216 204 191 189 210 203 189 196 241 212 176 172 165 149 207 82 31 281 206 144 197 184 168 173 164 154 135 191 222 104 145 171 183 199 102 137 183 142 196 173 131 232 247 187 201 199 172 156 163 185 226 221 171 156 240 241 162 161 172 191 211 179 179 225 254 311 355 138 265 278 254 239 229 240 263 265 257 256 247 233 224 218 205 191 189
229 227 221 214 202 194 194 179 178 186 195 250 186 174 175 173 171 151 97 132 271 147 134 230 151 137 145 159 157 143 233 184 120 190 190 159 201 47 165 200 175 183 179 151 219 262 155 176 196 183 178 195 204 214 189 160 166 242 203 128 130 154 163 147 138 178 285 24 294 287 128 253 269 266 284 219 232 261 265 257 256 249 237 225 218 207 195 192
228 226 221 214 204 201 203 187 184 202 206 144 154 173 169 166 169 74 85 200 259 115 137 142 132 118 87 144 169 148 33 50 135 215 39 120 187 58 180 200 155 175 199 178 205 254 145 187 192 170 180 208 205 207 175 167 191 211 134 96 70 76 78 75 107 124 42 27 245 244 189 238 268 244 209 28 240 251 258 257 257 252 238 220 213 208 195 187
229 226 221 211 200 199 201 205 211 212 207 186 158 164 158 150 141 96 167 215 238 213 185 133 167 168 140 150 183 180 89 44 15 110 59 105 51 30 157 152 92 147 232 335 240 248 313 274 199 163 183 187 147 103 164 178 173 136 100 66 44 32 37 41 62 88 46 269 240 225 200 209 270 262 195 213 226 230 242 261 272 271 245 221 212 203 192 185
234 228 218 206 200 197 193 207 215 208 204 203 169 151 148 115 89 166 198 227 334 197 141 155 182 144 155 162 175 184 127 58 147 148 141 153 84 50 100 118 75 101 303 309 292 310 339 350 259 244 169 123 99 82 36 34 113 108 89 82 65 350 10 18 -0 48 230 253 241 234 210 195 237 258 229 244 260 247 229 243 265 270 253 227 215 202 191 186
242 234 220 211 207 200 197 210 208 200 196 188 170 152 154 167 204 210 203 89 287 205 163 178 192 163 168 171 173 171 146 129 180 166 158 155 169 181 189 190 167 133 243 237 248 329 313 240 265 314 229 142 116 101 31 12 55 97 103 108 112 305 352 345 303 201 232 254 265 276 202 200 239 250 251 262 269 258 237 232 243 251 250 233 214 201 186 177
249 239 222 214 211 203 204 213 201 191 180 168 164 157 166 180 198 207 200 185 209 199 146 141 151 158 162 165 180 166 126 167 181 171 167 150 173 209 224 218 183 156 194 193 178 198 269 294 308 292 274 193 156 163 181 213 167 150 144 140 152 172 171 264 259 265 259 264 295 333 156 239 273 260 236 239 247 251 250 248 238 231 241 240 217 194 180 176
253 243 225 216 214 210 206 207 197 183 172 163 156 155 188 206 205 199 209 214 200 81 99 128 121 137 159 168 195 169 147 217 183 154 155 151 169 213 230 233 213 165 105 151 173 178 212 284 216 183 221 188 182 192 169 139 158 181 156 142 160 161 171 217 212 220 251 277 304 303 184 204 225 247 232 231 251 266 267 271 264 248 244 239 200 176 175 182
255 246 232 217 214 212 204 200 192 178 171 166 157 171 187 204 207 205 217 215 181 57 44 111 113 130 181 251 249 184 165 212 183 151 162 174 187 200 197 210 204 175 136 173 212 166 196 262 239 204 189 168 182 199 117 107 139 235 121 119 179 183 175 216 203 180 195 295 287 235 229 222 213 261 263 251 278 286 280 285 283 275 269 169 172 183 184 186
258 251 234 216 213 211 201 195 185 176 174 170 169 189 197 204 201 200 215 206 184 129 109 102 89 132 188 212 239 212 179 121 158 163 197 202 221 207 200 214 197 185 183 178 183 155 169 273 277 13 25 174 182 173 132 143 179 165 132 171 207 180 155 200 272 47 75 272 260 201 248 285 305 279 264 242 256 272 283 279 268 273 282 202 206 201 192 192
265 252 227 216 215 208 199 192 180 177 180 175 188 202 200 212 212 191 188 192 168 132 134 171 179 161 182 189 202 203 186 126 158 177 195 197 243 211 203 237 194 192 201 179 168 196 162 253 280 128 163 253 249 110 67 24 130 130 181 204 171 67 102 125 252 349 33 258 266 217 239 267 273 273 299 192 232 255 264 260 260 275 256 228 225 206 199 197
267 246 226 224 217 204 197 190 178 177 182 179 205 218 199 212 218 195 173 135 144 146 170 206 198 170 180 189 193 185 176 174 176 185 187 192 241 203 181 208 205 199 205 184 169 236 158 210 294 102 172 282 5 96 58 2 77 130 184 188 118 130 203 117 166 227 196 252 284 258 239 244 212 231 298 177 209 232 245 246 252 257 237 230 229 207 200 195
260 234 243 231 215 203 195 187 177 179 193 182 204 220 208 210 210 199 195 172 172 178 198 216 209 180 186 181 169 168 180 184 172 179 188 187 233 207 177 192 209 199 198 183 188 224 147 196 266 336 290 318 28 134 178 228 25 62 119 151 101 142 176 161 167 167 157 231 284 285 249 235 212 206 202 206 208 213 229 235 238 243 237 230 221 202 196 193
239 228 279 221 206 198 190 182 175 190 210 194 203 206 205 206 196 204 217 199 175 190 216 225 215 194 194 184 170 168 185 188 171 181 203 190 212 234 192 185 179 177 182 184 193 184 129 208 230 320 340 205 197 202 186 181 175 163 162 169 180 134 111 166 197 132 136 176 240 275 274 253 217 195 194 204 209 208 216 222 228 240 241 230 214 202 198 196
193 241 258 193 191 186 180 178 186 201 202 209 217 213 205 194 176 198 215 212 206 229 228 231 222 212 197 185 188 178 172 181 180 187 212 201 205 235 206 180 160 149 152 175 203 199 184 197 170 168 240 205 223 247 206 195 190 180 185 187 185 170 137 162 246 214 144 190 189 224 276 268 221 192 199 203 207 207 212 217 227 242 242 232 214 201 201 198
197 235 215 178 181 174 168 192 204 194 208 212 215 209 181 166 162 179 197 211 230 247 255 259 228 219 204 189 197 182 162 174 188 190 214 214 207 215 209 184 161 153 148 172 204 196 151 116 136 176 223 220 238 271 246 219 201 156 198 193 175 177 161 164 220 220 158 241 192 134 283 277 233 186 214 228 224 221 226 220 227 248 251 239 220 204 204 203
216 229 166 171 178 170 163 218 196 196 228 227 233 153 141 175 194 171 183 201 212 209 216 240 224 218 215 189 181 181 177 182 190 196 212 217 214 215 198 177 159 158 162 176 198 185 114 124 167 216 302 311 301 311 353 27 97 141 239 180 167 201 198 175 200 181 157 225 189 127 268 268 304 289 251 268 270 272 273 232 221 251 267 249 222 208 200 200
222 231 146 176 180 175 174 215 196 204 223 236 253 222 188 200 200 194 190 194 204 206 208 220 213 220 221 178 168 188 190 193 200 204 206 207 222 221 188 176 166 167 180 181 170 171 175 175 157 155 260 322 325 293 289 289 193 193 219 200 195 204 195 168 104 108 227 228 179 179 255 252 292 321 309 324 321 300 275 251 223 245 263 252 220 199 191 190
225 216 220 187 184 184 200 207 195 203 208 220 231 219 219 217 198 206 205 196 209 217 219 220 202 215 233 179 169 191 195 203 208 206 210 213 239 233 186 184 183 183 198 190 169 165 174 177 164 183 216 224 220 220 219 197 165 192 213 198 202 203 190 190 190 192 236 230 158 193 249 253 285 325 309 317 333 295 271 271 259 244 253 253 216 193 191 187
237 212 198 193 190 195 212 206 196 200 205 212 219 216 219 221 209 205 203 206 214 215 230 235 191 199 231 189 176 197 208 215 206 178 203 209 215 269 190 183 189 197 202 184 174 157 139 182 191 199 213 222 227 225 165 132 148 200 209 193 197 205 197 194 212 219 220 173 182 223 238 256 268 268 280 285 274 264 271 279 272 255 253 251 222 202 198 191
245 225 190 182 198 203 204 205 202 199 202 204 201 199 210 218 223 201 195 210 208 201 225 240 193 201 216 194 196 208 203 207 200 175 196 201 198 295 203 157 170 178 110 136 192 142 114 205 207 207 215 225 232 222 154 154 177 198 202 193 197 204 195 194 215 220 179 119 250 241 218 247 262 253 246 254 250 257 259 248 250 255 249 238 210 188 195 193
242 261 205 183 194 207 202 200 199 202 207 202 198 207 209 214 217 203 195 212 209 194 204 219 208 212 212 201 203 206 184 184 208 205 193 189 177 165 143 137 158 139 108 113 156 111 140 225 217 211 221 232 235 213 165 176 184 189 197 198 198 199 197 202 216 220 186 180 248 251 196 219 252 255 245 239 221 232 242 234 231 229 213 209 192 190 203 197
229 274 259 222 215 214 208 197 194 206 213 201 198 218 213 213 217 212 198 200 207 202 198 208 214 212 213 209 202 204 195 187 211 213 184 172 179 163 167 188 180 83 92 107 85 89 177 245 223 202 227 244 245 217 168 176 163 174 203 204 202 205 205 208 217 222 213 217 243 253 243 241 252 256 246 230 213 232 247 235 205 211 214 209 197 207 214 202
218 261 273 275 257 226 211 190 184 204 215 202 199 210 205 210 216 215 206 191 196 199 198 213 220 211 209 212 208 218 216 202 215 215 172 165 191 183 190 191 142 60 71 129 140 115 203 233 58 129 222 254 255 239 173 165 183 217 226 221 218 216 212 214 221 224 222 230 242 250 258 260 256 230 239 236 209 231 251 232 224 225 220 211 206 218 221 210
233 257 253 316 281 234 215 189 170 193 213 202 198 198 201 214 215 212 214 207 203 201 195 210 220 215 208 211 212 224 227 220 226 219 160 171 200 186 203 197 139 126 139 169 165 135 167 207 48 97 200 249 254 250 216 168 181 231 242 236 227 218 210 214 218 218 214 224 239 246 255 259 249 199 228 231 185 214 234 230 230 232 219 208 210 220 220 215
226 242 230 246 282 245 235 219 191 198 208 200 199 194 198 214 214 209 218 219 214 215 207 212 219 215 205 210 214 222 224 219 222 206 140 174 195 155 185 185 148 150 156 163 170 139 155 175 134 141 213 254 250 215 189 148 159 232 240 237 227 211 203 214 220 223 217 213 227 233 237 249 248 216 223 232 210 221 235 230 226 228 218 210 216 221 221 219
Height
820 820 820 820 820 820 820 820 820 821 821 821 821 822 822 822 822 823 823 822 823 822 822 822 822 822 821 821 820 820 819 819 818 818 818 818 818 818 818 818 818 818 818 817 817 816 815 815 814 813 812 814 817 818 817 817 818 821 831 838 844 850 847 842 844 843 838 837 838 837 836 837 840 839 837 838 841 845 848 850 850 848 847 848 848 848 849 849
820 820 820 820 820 820 820 820 820 820 821 821 821 821 821 822 822 822 822 822 822 822 822 822 822 821 821 821 820 819 819 818 818 818 818 818 818 818 818 818 818 818 818 818 817 817 817 817 815 815 815 817 820 819 819 820 820 826 836 841 845 847 842 838 839 838 836 835 836 836 836 836 837 838 837 839 846 847 846 851 853 851 850 849 849 849 849 849
820 821 821 821 821 821 820 820 820 820 820 820 821 820 821 821 821 821 821 822 821 822 822 821 821 821 821 821 820 820 819 818 819 819 818 818 818 818 819 819 819 818 818 818 818 817 817 817 816 817 818 821 822 821 822 822 823 829 835 841 844 840 837 837 836 835 834 833 835 836 836 836 836 836 836 840 846 846 843 847 850 850 851 850 849 849 849 849
820 821 821 821 821 821 820 820 820 820 820 820 820 820 820 820 821 821 821 821 821 821 821 821 821 820 821 820 820 820 817 820 821 819 818 818 818 819 819 819 819 819 819 818 818 817 817 817 816 817 820 824 824 823 825 825 826 829 833 838 839 837 837 836 834 833 833 834 835 835 837 837 836 836 837 840 846 847 843 840 840 842 846 848 849 849 849 849
820 820 821 821 820 820 820 820 819 819 819 819 819 819 820 820 820 820 821 821 821 821 821 821 821 820 821 820 821 818 819 827 824 818 819 819 819 819 819 819 819 819 819 818 818 817 817 816 817 819 823 826 826 826 828 827 826 831 835 835 835 836 836 834 834 833 833 834 835 836 837 836 835 836 837 839 841 841 837 835 835 837 841 845 847 848 848 849
820 820 820 820 820 820 819 819 819 819 819 819 819 819 820 820 820 820 820 821 821 821 821 821 820 821 820 820 820 818 822 830 822 817 820 819 819 820 819 820 819 819 819 818 818 817 817 817 819 823 826 828 830 830 830 829 827 833 837 836 835 835 834 834 834 833 833 834 835 836 835 835 837 836 837 837 836 836 835 834 836 838 841 843 846 847 848 849
819 819 820 819 819 819 819 819 819 818 818 818 819 819 819 820 820 820 820 820 820 820 821 821 820 820 820 820 820 819 823 824 818 818 820 819 820 820 820 820 820 820 819 818 818 818 819 820 822 826 828 830 832 831 831 830 828 832 837 835 834 834 832 833 833 833 833 833 834 835 835 836 836 837 837 836 835 838 838 837 837 840 842 844 846 847 848 849
819 819 819 819 819 819 819 819 819 819 818 818 818 819 819 819 819 820 820 820 820 821 821 820 820 820 820 820 820 823 824 820 817 819 819 819 820 819 820 820 820 820 819 819 819 819 820 822 825 826 829 832 831 831 832 831 831 833 836 835 834 833 832 833 833 833 834 834 835 835 836 836 836 837 836 834 837 840 840 839 840 841 843 845 846 847 848 849
819 819 819 819 819 819 819 819 819 819 818 818 818 818 819 819 819 820 820 820 820 821 820 820 821 820 820 820 821 825 823 817 817 818 819 819 819 819 820 820 820 820 819 820 819 819 821 824 825 824 828 831 830 831 831 833 835 834 834 834 833 833 833 834 834 833 834 834 835 836 837 837 836 838 835 833 838 840 841 841 842 843 844 846 846 847 848 848
818 818 818 819 818 818 818 818 819 818 819 819 818 819 819 819 819 819 820 820 820 820 820 821 820 820 821 820 824 827 820 816 818 818 819 819 819 820 820 820 820 820 820 820 820 820 821 823 823 822 825 828 829 832 832 833 835 833 834 834 833 834 834 834 834 833 834 834 835 836 837 836 837 839 834 834 840 841 841 843 844 844 845 846 847 847 847 848
818 818 818 818 818 818 818 818 818 818 818 818 818 818 818 819 819 820 820 820 820 820 820 820 820 821 820 821 825 825 818 817 818 817 818 819 819 820 820 820 820 820 821 821 821 821 821 821 821 822 825 828 830 833 833 832 832 832 833 833 834 835 834 833 833 834 835 835 834 835 836 837 839 838 832 833 840 840 840 843 845 844 845 846 847 847 848 848
818 818 818 818 818 818 818 818 818 818 818 818 818 818 818 819 819 819 819 820 820 820 820 820 821 821 820 822 824 821 817 817 817 817 818 818 819 820 820 821 820 821 821 821 822 821 821 821 820 824 827 828 831 835 833 831 832 833 834 836 836 835 833 832 832 833 834 835 833 835 840 840 837 834 830 835 840 840 842 843 844 845 845 847 847 847 847 847
817 818 818 818 818 818 818 818 818 818 818 818 818 818 818 818 818 819 819 819 820 820 820 820 820 820 821 822 820 817 817 817 817 818 818 818 819 820 820 820 820 821 821 821 822 821 822 821 821 824 826 828 832 833 831 831 832 833 837 839 840 839 836 832 833 834 834 836 832 836 844 838 829 829 832 838 840 840 842 843 844 845 846 847 847 847 847 847
817 817 817 818 818 818 818 818 818 818 818 818 818 817 818 818 818 818 818 819 819 820 820 820 821 820 822 821 817 817 817 817 818 818 818 819 819 820 820 821 821 821 821 821 822 822 822 821 822 823 826 829 830 830 832 835 835 837 841 843 847 847 838 831 835 835 834 837 833 837 847 837 824 827 834 839 839 838 840 841 843 844 845 846 846 846 846 846
817 817 817 817 817 817 817 817 817 817 818 817 817 817 817 817 818 818 818 819 819 820 820 820 821 821 823 821 816 817 817 817 818 818 818 819 819 820 820 821 821 821 821 822 821 822 822 822 823 827 830 829 830 833 838 839 839 841 844 847 853 852 841 833 833 834 833 836 835 837 846 838 825 825 833 838 839 838 837 839 842 842 843 844 844 845 845 845
816 816 816 817 817 817 817 817 817 817 817 817 817 817 817 817 817 817 818 818 819 820 820 821 821 822 825 821 817 817 816 816 817 817 818 819 819 820 820 821 821 821 822 822 822 822 822 823 827 831 831 831 834 838 842 845 845 847 847 848 851 851 847 839 833 834 832 834 837 837 840 835 826 828 835 838 838 838 837 838 839 840 841 841 842 843 844 844
815 816 816 816 816 816 816 816 816 816 817 816 816 816 817 817 818 818 818 819 820 820 820 821 820 822 822 819 818 816 814 815 815 817 818 818 820 820 820 821 822 822 822 822 823 823 824 826 832 834 834 837 840 839 846 853 849 849 852 851 850 849 849 844 835 834 834 834 836 839 840 833 825 829 836 837 838 839 837 835 836 837 838 839 841 841 842 843
814 814 815 816 816 816 816 816 816 816 816 816 816 816 817 817 818 818 818 819 820 821 822 822 822 826 823 816 815 813 812 813 814 816 817 818 819 820 820 820 821 822 823 825 825 826 828 832 835 837 839 842 842 842 848 850 843 844 848 848 848 848 849 846 839 834 834 836 837 840 843 836 827 828 833 835 837 838 834 832 833 835 836 837 838 839 840 840
812 813 814 815 815 816 816 816 816 816 816 816 816 817 817 818 818 818 819 819 819 820 821 818 819 822 818 812 811 811 811 813 814 815 817 818 819 820 820 820 822 823 826 830 830 830 831 835 840 842 843 842 841 840 839 837 836 838 841 842 843 844 845 843 838 833 833 837 839 839 839 833 827 825 826 831 835 835 833 832 832 833 834 835 835 836 836 837
811 812 813 814 815 815 815 816 815 816 816 816 816 817 817 818 819 819 819 818 815 812 813 812 811 813 812 810 811 812 812 814 814 815 816 817 818 820 820 821 824 826 829 831 833 833 833 839 843 840 837 836 838 836 832 835 838 839 840 843 844 845 843 838 834 831 832 837 837 836 836 832 828 824 822 827 834 834 833 831 830 829 829 830 831 831 832 833
809 811 811 812 814 815 815 815 815 816 816 816 816 817 816 815 817 817 817 815 811 808 809 809 810 810 809 810 811 810 812 815 815 815 816 817 817 820 822 824 827 830 832 833 834 834 836 842 840 832 831 832 835 836 836 838 840 841 843 844 846 849 845 836 833 833 833 838 835 833 837 834 828 824 821 826 830 828 827 826 824 823 824 825 826 827 828 831
808 809 810 812 813 814 815 815 815 815 815 816 816 816 815 814 814 814 815 813 808 806 808 809 811 811 809 809 810 810 811 815 816 815 815 816 817 820 822 826 828 830 834 835 836 839 844 844 833 828 833 835 836 838 839 840 840 842 846 848 849 849 845 837 835 836 836 837 835 834 838 832 825 823 821 822 822 818 817 817 815 815 818 819 821 822 825 829
806 807 809 810 811 814 814 815 815 815 815 815 815 815 815 814 814 814 814 815 809 804 805 807 808 809 809 809 808 809 810 812 814 814 814 815 817 819 821 825 828 831 835 833 833 840 845 837 825 827 835 836 836 839 840 842 843 843 846 849 849 847 845 839 837 838 836 837 836 835 838 831 823 822 817 814 814 812 811 812 810 810 811 811 813 815 818 822
803 805 807 808 811 813 813 815 814 814 814 814 813 813 813 813 814 814 813 814 810 803 800 800 801 802 803 804 804 807 809 808 808 810 811 813 817 820 820 822 828 832 833 830 828 833 831 824 821 827 833 834 836 838 840 843 845 844 844 846 845 842 841 839 839 839 836 838 838 837 838 827 817 818 811 806 811 810 807 808 808 807 807 807 809 810 813 816
801 804 805 807 810 811 813 815 812 813 813 812 811 810 812 813 813 815 814 815 813 804 799 797 797 797 795 799 801 803 807 806 803 804 806 809 812 816 818 819 824 829 830 830 832 833 827 822 823 827 832 835 836 837 839 841 844 843 839 837 836 835 835 838 841 841 841 843 840 842 843 826 813 816 811 807 810 806 803 805 802 801 803 805 806 806 810 814
798 801 803 805 808 810 814 812 810 812 812 810 808 808 812 812 814 815 814 822 818 803 799 797 794 791 789 796 799 802 810 806 799 800 803 806 806 808 816 819 819 823 827 830 833 831 825 821 822 825 829 833 837 839 836 837 844 845 835 830 832 833 835 837 840 843 846 848 844 845 847 833 816 811 807 806 806 799 798 801 797 797 800 800 801 801 806 811
795 798 800 803 805 808 810 808 808 810 810 807 804 808 812 810 815 813 816 834 821 793 792 796 791 787 785 791 793 800 811 803 798 802 801 804 805 804 812 818 819 821 822 826 830 826 820 820 824 825 826 831 837 838 834 834 841 841 833 831 831 833 835 836 839 843 846 848 847 844 847 844 827 811 804 803 803 800 798 797 794 794 795 796 797 799 803 807
792 794 797 800 802 803 804 805 806 806 806 804 802 807 809 810 816 812 821 839 812 780 785 791 787 784 785 790 789 794 801 796 798 805 801 803 806 804 810 814 815 816 815 819 825 822 817 818 822 823 828 832 831 828 827 830 834 834 835 836 834 834 836 838 841 846 850 853 850 843 847 849 830 811 809 808 806 803 797 792 787 786 789 793 795 797 800 803
789 791 793 796 799 801 802 803 803 802 804 804 804 806 807 811 814 812 828 830 794 774 782 784 785 787 789 793 792 793 797 796 800 803 802 804 805 806 810 811 812 814 813 814 818 819 818 819 819 819 824 826 823 824 826 826 827 832 836 836 836 839 841 843 844 846 852 856 850 842 845 845 824 804 807 811 806 799 791 785 782 781 784 788 791 794 797 801
786 788 790 794 796 797 800 801 800 801 804 805 806 806 808 812 812 822 837 819 784 779 785 783 786 789 791 796 799 797 797 800 803 803 805 806 805 806 808 809 811 814 816 816 817 821 821 822 821 818 819 820 821 829 832 828 827 831 833 832 836 842 843 847 849 848 853 854 844 836 836 841 832 810 803 802 794 788 784 780 777 777 781 784 788 791 794 798
784 786 788 790 791 793 795 795 795 799 803 805 807 807 810 813 814 823 826 800 780 784 786 786 789 789 790 793 797 799 799 803 804 803 806 808 808 810 810 812 814 819 824 821 821 824 822 821 821 818 819 820 820 827 834 834 832 830 828 831 839 845 846 851 854 855 857 849 835 832 834 842 838 814 798 793 787 786 786 779 774 773 775 780 785 789 792 796
782 783 785 786 786 788 789 787 791 799 802 804 808 807 808 817 820 813 802 787 781 780 778 784 788 788 791 789 791 796 798 802 803 802 804 808 811 809 808 809 811 820 828 825 824 826 822 821 822 820 820 819 817 825 834 836 834 831 830 836 846 854 856 856 857 860 858 846 837 839 841 840 828 804 794 792 785 782 782 780 777 773 772 776 783 787 791 795
780 781 781 782 782 783 784 786 792 798 801 803 808 808 809 818 815 799 787 779 774 771 772 777 782 785 789 790 793 795 796 800 802 802 803 805 810 809 805 805 805 809 816 821 827 828 824 824 824 821 818 814 812 820 829 832 834 832 831 836 846 858 864 860 859 859 852 841 840 845 841 834 817 795 786 784 777 774 775 777 778 776 773 774 779 786 789 793
778 779 779 779 780 780 782 787 791 795 799 801 805 810 815 816 804 789 781 770 764 769 772 775 781 788 789 789 791 791 794 801 802 802 804 806 811 811 808 807 806 805 809 820 826 826 825 821 816 814 811 809 808 809 813 821 831 831 826 829 836 844 847 847 847 845 838 836 843 847 836 820 804 787 779 779 778 777 776 776 777 778 778 777 780 785 788 791
776 777 777 777 778 778 780 784 787 793 798 798 802 808 810 806 796 787 777 765 764 772 775 776 781 790 792 791 791 787 789 797 801 803 805 806 806 806 803 801 802 803 806 814 818 821 823 813 805 807 806 805 806 806 808 817 829 833 830 830 831 828 825 832 840 840 839 841 843 841 825 805 792 782 778 782 781 779 778 777 776 775 778 781 781 784 786 788
773 773 774 773 772 774 778 781 784 790 792 795 802 802 794 784 777 775 769 760 762 769 778 783 784 790 794 793 793 791 787 791 799 803 804 804 801 799 796 791 792 796 794 799 808 815 819 813 809 811 808 807 808 807 808 812 819 831 834 829 827 824 820 827 841 845 846 843 833 826 814 800 792 780 773 776 775 774 775 774 773 775 779 781 779 782 785 786
770 769 769 766 766 769 775 778 781 786 788 792 795 788 780 773 764 763 762 757 759 764 772 779 779 783 790 791 790 790 788 790 797 800 801 805 797 790 792 788 786 789 783 786 796 799 803 807 811 812 809 811 813 810 810 811 814 825 830 823 822 827 825 828 839 844 847 843 828 818 809 799 796 784 772 775 775 773 771 767 770 777 779 778 776 780 784 784
767 767 763 758 760 765 770 775 778 781 784 788 789 779 773 769 760 757 758 755 757 762 764 766 767 770 777 782 784 785 785 787 795 798 797 801 790 776 783 785 781 783 779 781 790 791 793 801 811 817 813 813 814 811 814 817 815 817 818 816 819 826 828 833 839 838 841 841 826 815 810 800 794 783 771 772 773 767 764 764 768 771 771 772 774 779 782 783
765 765 758 750 754 761 765 770 774 777 777 780 786 777 764 760 757 755 755 753 754 760 759 755 757 765 770 773 776 781 782 781 790 794 789 792 785 770 771 774 774 779 779 781 787 788 790 796 807 818 818 815 814 813 817 820 819 819 818 818 819 820 823 827 831 830 831 832 821 812 805 789 779 773 764 763 763 757 757 761 763 762 762 766 771 775 779 781
762 763 753 745 750 756 762 766 769 771 768 766 770 764 753 753 756 755 753 752 753 756 757 753 754 761 765 767 769 773 776 777 783 786 781 780 778 769 767 767 770 778 779 781 784 785 790 794 802 818 823 818 812 809 809 810 811 815 818 820 821 821 824 824 824 824 823 823 821 814 797 772 764 765 757 755 756 753 755 758 757 756 756 761 767 772 775 777
761 760 750 743 747 752 760 765 762 761 759 758 758 754 750 751 752 754 753 754 755 753 752 752 753 755 758 763 764 764 770 775 778 779 776 773 771 765 762 761 764 773 780 787 786 782 787 793 799 814 820 812 805 803 803 801 799 802 806 809 809 812 819 822 823 823 821 816 812 812 795 763 755 761 754 751 753 751 754 755 752 753 754 757 764 768 771 773
758 754 745 743 746 749 756 759 755 755 754 750 748 748 750 749 750 754 753 755 757 755 754 753 751 750 751 755 759 759 764 770 774 774 770 766 763 758 756 756 759 765 772 780 779 772 779 790 796 807 812 807 803 805 807 804 799 800 802 801 802 804 806 810 813 815 818 812 805 814 805 767 753 760 756 755 755 752 756 757 754 753 753 757 762 765 769 771
752 747 742 743 744 746 753 753 751 754 752 745 743 745 748 748 751 754 752 753 755 754 755 753 749 748 746 747 754 757 758 762 766 766 762 761 759 753 752 754 757 761 763 769 774 772 778 787 792 801 807 805 803 803 805 805 802 803 804 801 802 800 796 798 802 804 808 804 802 817 807 768 756 763 760 760 761 757 758 758 755 755 753 757 761 764 769 771
746 744 742 744 744 744 746 745 746 753 754 749 748 748 747 747 748 750 749 750 749 748 751 750 746 745 743 742 747 751 751 754 758 757 755 757 755 749 750 752 754 757 757 760 765 769 778 785 790 800 807 806 806 805 804 805 805 802 800 799 798 795 795 800 803 806 805 793 794 809 795 762 758 764 760 760 760 756 757 757 757 756 753 754 760 764 768 771
743 742 741 741 741 740 737 734 738 749 753 754 752 749 748 746 744 744 746 747 746 745 746 744 742 741 741 741 744 746 745 744 748 751 752 754 752 748 750 751 751 751 750 750 752 757 770 778 781 791 798 797 794 791 787 792 800 799 795 796 796 795 797 797 799 805 801 788 790 797 778 756 757 761 756 757 757 753 752 753 756 756 754 755 759 762 765 768
740 737 738 738 736 734 732 729 733 740 745 750 752 749 748 746 741 740 744 745 744 743 742 740 740 741 741 742 744 746 745 740 742 747 750 751 749 749 750 750 751 751 751 752 752 756 765 770 769 771 774 770 764 764 767 775 789 791 786 788 792 792 792 794 796 797 792 791 792 780 765 758 757 756 755 753 753 751 748 749 751 751 752 755 757 760 764 766
738 730 728 730 729 726 726 727 730 733 736 741 743 741 742 744 740 740 742 740 739 741 743 741 741 742 742 741 742 743 743 744 745 745 747 748 746 749 752 751 752 753 753 755 755 758 763 766 762 759 757 751 746 754 764 767 771 775 777 783 787 788 791 794 792 781 780 792 786 762 763 769 757 750 752 750 751 751 746 745 745 745 750 754 757 760 763 764
737 727 719 721 722 720 718 720 724 728 730 733 735 733 735 739 739 738 739 736 735 738 742 743 741 739 737 736 738 740 741 746 747 744 745 747 746 749 751 752 754 754 754 757 759 762 764 761 757 757 757 748 743 756 766 762 763 768 770 775 779 783 787 786 780 772 775 785 771 751 762 767 748 742 747 746 748 746 740 740 742 745 749 752 755 757 758 762
734 729 722 719 719 716 713 714 719 723 725 729 734 734 735 736 734 731 731 733 736 736 737 739 736 733 733 733 735 738 738 740 742 740 741 743 745 747 747 749 755 757 756 758 763 768 766 761 759 760 762 755 748 757 765 763 766 769 770 772 774 775 776 774 772 771 773 774 761 752 760 756 740 739 741 740 742 740 738 742 744 743 744 746 750 752 753 758
731 730 726 722 717 713 712 713 718 722 722 724 729 732 733 734 732 728 725 728 732 731 731 731 727 727 731 732 733 733 729 726 727 729 734 738 742 744 742 741 749 759 762 760 765 770 768 765 764 764 766 762 753 756 765 767 767 767 769 773 771 768 771 774 774 773 774 772 762 759 762 750 736 737 738 736 740 740 740 741 740 739 740 742 746 747 749 753
728 726 726 726 722 715 711 711 716 720 719 720 723 726 728 729 726 725 723 720 721 723 724 723 722 725 728 731 732 729 723 721 720 722 728 732 733 735 736 735 741 754 764 762 762 767 768 767 768 768 770 765 754 756 766 769 770 773 770 764 761 765 770 772 769 766 767 767 765 768 766 747 733 736 736 735 738 738 735 735 736 737 738 740 741 741 744 748
726 725 725 729 725 716 712 711 712 714 712 713 717 719 722 721 720 722 724 720 717 718 719 717 718 724 728 729 726 719 715 718 721 724 729 729 729 731 734 734 736 744 757 763 763 763 763 765 770 772 771 763 757 759 765 770 776 773 757 742 744 757 763 762 761 758 757 759 761 762 751 732 727 734 736 735 736 734 731 731 732 733 735 738 739 737 739 741